Home   Weather   Mandurah   Past weeks

Flag for Australia Past Weather in Mandurah, Western Australia, Australia — Yesterday and Last 2 Weeks

Now
57 °F

Cool.


Feels Like: 55 °F
Forecast: 54 / 62 °F
Wind: 8 mph from West

Location: Mandurah Aws

Current Time: Sep 26, 2016 at 8:19:58 AM

Latest Report: Sep 26, 2016 at 6:00 AM


Visibility: N/A

Pressure: 30.10 "Hg

Humidity: 66%

Dew Point: 46 °F

Location of MandurahLocation

Past Weather in Mandurah — Graph

°F

Mandurah Temperature Yesterday

Maximum temperature yesterday: 60 °F (at 3:00 PM)
Minimum temperature yesterday: 51 °F (at 5:00 AM)
Average temperature yesterday: 55 °F

High & Low Weather Summary for the Past Weeks

 TemperatureHumidityPressure
High65 °F (Sep 12, 3:00 PM)100% (Sep 22, 11:00 AM)30.41 "Hg (Sep 22, 11:00 AM)
Low45 °F (Sep 19, 6:00 AM)33% (Sep 13, 2:00 PM)29.80 "Hg (Sep 18, 9:00 PM)
Average55 °F67%30.12 "Hg
* Reported Sep 11 6:00 AM — Sep 26 6:00 AM, Mandurah, Weather by CustomWeather, © 2016

Note: Actual official high and low records may vary slightly from our data, if they occured in-between our weather recording intervals... More about our weather records

Advertising

Mandurah Weather History for the Previous 24 Hours

Scroll right to see more
 ConditionsComfort  
Time TempWeatherWind HumidityBarometerVisibility
6:00 AM
Mon, Sep 26
57 °FCool.8 mph66%30.10 "HgN/A
5:00 AM56 °FCool.8 mph66%30.10 "HgN/A
3:00 AM48 °FCool.No wind80%30.11 "HgN/A
2:00 AM48 °FCool.1 mph77%30.11 "HgN/A
12:00 AM51 °FCool.2 mph71%30.14 "HgN/A
11:00 PM
Sun, Sep 25
53 °FCool.3 mph67%30.15 "HgN/A
9:00 PM55 °FCool.6 mph63%30.15 "HgN/A
8:00 PM55 °FCool.6 mph63%30.15 "HgN/A
6:00 PM57 °FRefreshingly cool.10 mph52%30.11 "HgN/A
5:00 PM59 °FRefreshingly cool.10 mph43%30.10 "HgN/A
3:00 PM60 °FRefreshingly cool.12 mph46%30.07 "HgN/A
2:00 PM59 °FRefreshingly cool.8 mph44%30.06 "HgN/A
12:00 PM58 °FRefreshingly cool.10 mph41%30.09 "HgN/A
11:00 AM56 °FRefreshingly cool.13 mph43%30.09 "HgN/A
9:00 AM53 °FCool.14 mph63%30.08 "HgN/A
8:00 AM52 °FCool.14 mph72%30.06 "HgN/A
Weather by CustomWeather, © 2016

See weather overviewHow to use our weather pages